User: anonymous   Login
Location: Burgerwiesen
(48.6500°N, 15.6167°E)
Time: 13:58:53
(UTC+00:00)
Language:

Cosmos 1741 Rocket - Orbit

View from above orbital plane
View from above orbital plane
View from above satellite
View from above satellite

Ground track
Ground track

The orbit data is extracted from the following two-line orbital elements,

1 16682U 86030B   21162.87616087  .00000027  00000-0  18268-4 0  9993
2 16682  74.0274  72.8386 0013775  54.4716  11.1596 14.35947687839820
Epoch (UTC): 11 June 2021 21:01:40
Eccentricity: 0.0013775
inclination: 74.0274°
perigee height: 762 km
apogee height: 782 km
right ascension of ascending node: 72.8386°
argument of perigee: 54.4716°
revolutions per day: 14.35947687
mean anomaly at epoch: 11.1596°
orbit number at epoch: 83982

The dashed part of the orbit path shows where the satellite is in the earth's shadow,  

DLR